This demonstration page uses our WeatherBlox Daily Observations layout. Learn more.

Left ArrowRight Arrow

38.88101, -77.10428

Hourly Observations for September 21, 2022

Temp ( °F °C ) Dew Point ( °F °C ) Humidity (%) Winds ( mph kmh ) Pressure ( in mb ) Visibility ( mi km ) Precip ( " mm )
12:52 am 00:52 Mostly Cloudy 70 21.1 58 14.4 66 66 WSW 5 7 30.00 1016 10 16 0.00 0.00
1:52 am 01:52 Mostly Cloudy 70 21.1 61 16.1 73 73 N 3 6 29.98 1015 10 16 0.00 0.00
5:52 am 05:52 Mostly Cloudy 66 18.9 58 14.4 75 75 SW 5 7 29.99 1016 10 16 0.00 0.00
6:52 am 06:52 Mostly Cloudy 66 18.9 58 14.4 75 75 Calm 30.00 1016 10 16 0.00 0.00
7:52 am 07:52 Partly Cloudy 68 20 59 15 73 73 Calm 30.01 1016 10 16 0.00 0.00
8:52 am 08:52 Mostly Sunny 72 22.2 62 16.7 71 71 VRB 3 6 30.02 1017 10 16 0.00 0.00
9:52 am 09:52 Mostly Sunny 75 23.9 60 15.6 60 60 NNE 6 9 30.02 1017 10 16 0.00 0.00
10:52 am 10:52 Mostly Sunny 77 25 60 15.6 56 56 E 3 6 30.02 1017 10 16 0.00 0.00
11:52 am 11:52 Mostly Sunny 80 26.7 60 15.6 51 51 ENE 6 9 29.99 1016 10 16 0.00 0.00
12:52 pm 12:52 Partly Cloudy 81 27.2 61 16.1 51 51 SE 5 7 29.96 1015 10 16 0.00 0.00
1:52 pm 13:52 Mostly Cloudy 83 28.3 61 16.1 48 48 SSE 10 17 29.94 1014 10 16 0.00 0.00
2:52 pm 14:52 Partly Cloudy 85 29.4 62 16.7 46 46 S 10 17 29.92 1013 10 16 0.00 0.00
3:52 pm 15:52 Partly Cloudy 86 30 60 15.6 42 42 WSW 6 9 29.90 1013 10 16 0.00 0.00
4:52 pm 16:52 Mostly Cloudy 85 29.4 61 16.1 45 45 SSW 10 17 29.88 1012 10 16 0.00 0.00
5:52 pm 17:52 Mostly Cloudy 84 28.9 63 17.2 49 49 S 12 19 29.88 1012 10 16 0.00 0.00
6:52 pm 18:52 Mostly Cloudy 82 27.8 60 15.6 47 47 SSW 9 15 29.88 1012 10 16 0.00 0.00
7:52 pm 19:52 Partly Cloudy 80 26.7 60 15.6 51 51 SSW 7 11 29.87 1012 10 16 0.00 0.00
8:52 pm 20:52 Partly Cloudy 77 25 66 18.9 69 69 S 9 15 29.87 1011 10 16 0.00 0.00
9:52 pm 21:52 Mostly Clear 76 24.4 64 17.8 67 67 S 7 11 29.85 1011 10 16 0.00 0.00
10:52 pm 22:52 Mostly Clear 75 23.9 65 18.3 71 71 S 10 17 29.83 1010 10 16 0.00 0.00
11:52 pm 23:52 Mostly Clear 74 23.3 64 17.8 71 71 SSW 6 9 29.85 1011 10 16 0.00 0.00

Powered by AerisWeather